Cut Bank, MT

11:04 AM MST on December 11, 2017 (GMT -0700)
Cut Bank Municipal

Weather History for KCTB - April, 2013

Change the Weather History Date:

Wednesday, April 24, 2013

  Actual Average Record
Temperature  
Mean Temperature 41 °F 43 °F  
Max Temperature 56 °F 56 °F 84 °F (1910)
Min Temperature 25 °F 31 °F 5 °F (2009)
Degree Days  
Heating Degree Days 24 22  
Month to date heating degree days 729 597  
Since 1 July heating degree days 7523 7695  
Cooling Degree Days 0 0  
Month to date cooling degree days 0 0  
Year to date cooling degree days 0 0  
Moisture  
Dew Point 26 °F    
Average Humidity 59    
Maximum Humidity 92    
Minimum Humidity 26    
Precipitation  
Precipitation T in 0.04 in 0.86 in (1994)
Month to date precipitation 0.68 0.58  
Year to date precipitation 1.98 1.49  
Snow  
Snow 0.00 in - - ()
Snow Depth 1.00 in    
Sea Level Pressure  
Sea Level Pressure 30.09 in    
Wind  
Wind Speed 16 mph (West)    
Max Wind Speed 32 mph    
Max Gust Speed 39 mph    
Visibility 9 miles    
Events Snow    
T = Trace of Precipitation, MM = Missing Value Source: NWS Daily Summary

Daily Weather History Graph

Daily Weather History Graph

Search for Another Location

Airport or City:

Trip Planner

Search our weather history database for the weather conditions in past years. The results will help you decide how hot, cold, wet, or windy it might be!

Date:

Astronomy

Apr. 24, 2013 Rise Set
Actual Time 6:21 AM MDT 8:34 PM MDT
Civil Twilight 5:47 AM MDT 9:09 PM MDT
Nautical Twilight 5:04 AM MDT 9:52 PM MDT
Astronomical Twilight 4:16 AM MDT 10:40 PM MDT
Moon 7:40 PM MDT (4/24) 5:33 AM MDT (4/24)
Length of Visible Light 15h 21m
Length of Day
14h 13m
Waxing Gibbous, 98% of the Moon is Illuminated
Apr 24
Waxing Gibbous
Apr 25
Full
May 2
Last Quarter
May 9
New
May 17
First Quarter

Hourly Weather History & Observations

Time (MDT) Temp. Windchill Dew Point Humidity Pressure Visibility Wind Dir Wind Speed Gust Speed Precip Events Conditions
12:02 AM 33.8 °F 25.8 °F 28.4 °F 81% 30.19 in 1.8 mi North 10.4 mph - 0.00 in Snow Light Snow
12:24 AM 32.0 °F 26.4 °F 30.2 °F 93% 30.19 in 1.5 mi NW 5.8 mph - 0.00 in Snow Light Snow
12:42 AM 32.0 °F 25.6 °F 30.2 °F 93% 30.18 in 2.0 mi West 6.9 mph - 0.00 in Snow Light Snow
12:49 AM 32.0 °F 24.2 °F 30.2 °F 93% 30.18 in 4.0 mi West 9.2 mph - 0.00 in Snow Light Snow
12:56 AM 32.0 °F 24.2 °F 30.9 °F 96% 30.24 in 5.0 mi West 9.2 mph - 0.00 in Snow Light Snow
1:56 AM 32.0 °F 23.0 °F 30.0 °F 92% 30.25 in 10.0 mi WNW 11.5 mph - 0.00 in   Overcast
2:56 AM 32.0 °F 23.6 °F 30.0 °F 92% 30.24 in 10.0 mi West 10.4 mph - N/A   Overcast
3:56 AM 30.0 °F 22.4 °F 28.0 °F 92% 30.25 in 10.0 mi West 8.1 mph - N/A   Mostly Cloudy
4:56 AM 28.9 °F 19.8 °F 27.0 °F 92% 30.25 in 10.0 mi West 10.4 mph - N/A   Scattered Clouds
5:56 AM 28.0 °F 17.5 °F 25.0 °F 88% 30.24 in 10.0 mi West 12.7 mph - N/A   Clear
6:56 AM 26.1 °F 16.2 °F 21.9 °F 84% 30.24 in 10.0 mi West 10.4 mph - N/A   Clear
7:56 AM 28.0 °F 19.3 °F 24.1 °F 85% 30.23 in 10.0 mi West 9.2 mph - N/A   Clear
8:56 AM 33.1 °F 30.0 °F 28.0 °F 82% 30.23 in 10.0 mi West 3.5 mph - N/A   Clear
9:56 AM 41.0 °F 35.2 °F 32.0 °F 70% 30.20 in 10.0 mi WSW 9.2 mph - N/A   Clear
10:56 AM 44.1 °F 37.7 °F 28.9 °F 55% 30.17 in 10.0 mi WSW 12.7 mph - N/A   Clear
11:56 AM 48.9 °F - 19.9 °F 32% 30.12 in 10.0 mi WSW 11.5 mph - N/A   Clear
12:56 PM 53.1 °F - 21.9 °F 30% 30.06 in 10.0 mi West 23.0 mph 27.6 mph N/A   Clear
1:56 PM 54.0 °F - 19.9 °F 26% 30.02 in 10.0 mi WSW 21.9 mph 32.2 mph N/A   Clear
2:56 PM 55.0 °F - 21.0 °F 27% 29.98 in 10.0 mi West 27.6 mph 36.8 mph N/A   Clear
3:56 PM 55.0 °F - 21.9 °F 28% 29.95 in 10.0 mi WSW 28.8 mph 35.7 mph N/A   Clear
4:56 PM 53.1 °F - 19.9 °F 27% 29.94 in 10.0 mi West 21.9 mph 28.8 mph N/A   Clear
5:56 PM 53.1 °F - 23.0 °F 31% 29.92 in 10.0 mi WSW 26.5 mph - N/A   Clear
6:56 PM 52.0 °F - 24.1 °F 34% 29.90 in 10.0 mi WSW 23.0 mph - N/A   Scattered Clouds
7:56 PM 50.0 °F - 24.1 °F 36% 29.88 in 10.0 mi WSW 17.3 mph - N/A   Overcast
8:56 PM 46.9 °F - 25.0 °F 42% 29.87 in 10.0 mi West 19.6 mph - N/A   Partly Cloudy
9:56 PM 45.0 °F 37.6 °F 21.9 °F 40% 29.88 in 10.0 mi West 17.3 mph - N/A   Clear
10:56 PM 46.0 °F 39.0 °F 23.0 °F 40% 29.86 in 10.0 mi West 17.3 mph - N/A   Partly Cloudy
11:56 PM 46.0 °F 39.3 °F 24.1 °F 42% 29.83 in 10.0 mi West 16.1 mph - N/A   Clear